Tracking 19709 objects as of 17-Jun-2019
HD Live streaming from Space Station
objects crossing your sky now

SL-8 R/B

Track SL-8 R/B now!
10-day predictions


NORAD ID: 16292
Int'l Code: 1985-110B
Perigee: 960.0 km
Apogee: 1,003.6 km
Inclination: 82.9 °
Period: 104.6 minutes
Semi major axis: 7352 km
RCS: 4.4444 m2 (large)
Launch date: November 28, 1985
Source: Commonwealth of Independent States (former USSR) (CIS)
Launch site: PLESETSK MISSILE AND SPACE COMPLEX (PKMTR)

Note: This is a ROCKET BODY
aabbcc
Your satellite tracking list
Your tracking list is empty




NASA's NSSDC Master Catalog

Two Line Element Set (TLE):
1 16292U 85110B   19168.11302931  .00000108  00000-0  93723-4 0  9997
2 16292  82.9306 180.5978 0029686 203.5478 156.4323 13.76972881685610
Source of the keplerian elements: AFSPC